COSMOS 1275 DEB, 39941

Orbit data source: Space-Track

COSMOS 1275 DEB, 39941 is space debris in LEO originally from a launch on Thu, 04 Jun 1981 UTC launched from the Plesetsk Missile And Space Complex (PKMTR). Debris objects in space refer to the collection of defunct objects orbiting the Earth. Examples of debris include non-operational satellites, rocket bodies, and fragments generated from explosions, collisions, or faulty payload assembly.

Loading next visibility...
Identifier
39941, 1981-053NB
Orbit
LEO
Country
Flag of CISCIS
Related business
Manufacturer
Unknown
Mission
Spacecraft
Bus & Motor
Unknown
Mass
Unknown
Launch date (UTC)
1981-06-04 (44 years ago)
Launch vehicle
Unknown
Launch site
Plesetsk Missile And Space Complex (PKMTR)
Object type
Payload
Rocket body
Debris
Shape & HBR
Unknown shape, 0.1 m
Radar Cross Section
Small (<0.1 m²)

Expand to show TLE details & history
Last TLE update: 2 days ago

TLE from 2 days ago
0 COSMOS 1275 DEB
1 39941U 81053NB  25287.35892982  .00001798  00000-0  14905-2 0  9999
2 39941  83.0182 327.2342 0101224 150.5797 210.1118 13.85942885573201
Epoch: 2025-10-14T08:36Z
TLE epoch observation values (Epoch: 2025-10-14T08:36:51.536Z)
Latitude
0.00006°
Longitude
174.87098°
Altitude
1,010.106 km
Speed
7.314 km/s
True Right ascension
21h 48m 56s
True Declination
0° 00' 00"
Sunlit
Object was in full shadow at epoch
Visualization orbit readout
Latitude
Unknown
Longitude
Unknown
Altitude
Unknown
Speed
Unknown
Apparent Right ascension
Unknown
Apparent Declination
Unknown
Sunlit
N/A
Visualization observer readout
Local Sidereal Time
07:41:34
Azimuth
Unknown
Elevation
Unknown
Doppler factor
Unknown
Orbital elements
Apogee altitude
1,014.091 km
Perigee altitude
865.937 km
Semi-major axis
7,318.151 km
Eccentricity
0.01012
Inclination
83.0182°
RAAN
327.2342°
Arg. of periapsis
150.5797°
True anomaly
209.53618°
Mean anomaly
210.1118°
Eccentric anomaly
209.82336°
Mean motion
3.4669 °/min
Orbital period
103.84 mins
BSTAR
0.0014905
Loading maneuver chart data...
Computing Atmospheric mass density...
Loading historical data...
Loading historical data...
Loading historical data...
Loading historical data...
Loading historical data...
Loading historical data...
Loading historical data...

Documentation

Showing up to 5 results
|